Location: Eckley
(40.9930°N, 75.8630°W)
Time: 13:51:08
(UTC-04:00)

Daily predictions for brighter satellites

Satellite Brightness Start Highest point End
(mag) Time Altitude Azimuth Time Altitude Azimuth Time Altitude Azimuth
Cosmos 2142 Rocket 4.5 20:17:51 10° S 20:23:55 68° E 20:30:03 10° NNE
OAO 3 Rocket 4.0 20:20:15 10° WSW 20:24:47 40° S 20:29:22 10° ESE
ALOS 3.2 20:20:27 10° S 20:25:00 53° W 20:29:34 10° NNW
Cosmos 1933 4.1 20:26:16 10° SSE 20:29:52 32° E 20:33:28 10° NNE
Cosmos 1992 Rocket 4.0 20:26:25 10° S 20:31:34 60° ESE 20:36:44 10° NNE
Cosmos 2026 Rocket 4.0 20:27:11 10° N 20:33:24 68° E 20:39:28 10° SSE
Cosmos 1455 4.2 20:32:51 10° SW 20:36:18 34° WNW 20:39:46 10° N
Meteor 2-20 Rocket 4.5 20:31:52 10° N 20:38:01 79° E 20:44:10 10° S
Cosmos 1733 Rocket 3.3 20:34:55 10° N 20:39:19 54° E 20:43:40 10° SSE
USA 267 3.6 20:36:32 10° NE 20:43:04 73° NW 20:49:34 10° WSW
Helios 1A 3.2 20:40:04 10° SSE 20:44:13 56° ENE 20:48:23 10° N
Cosmos 1862 3.4 20:40:37 10° N 20:44:37 59° E 20:48:36 10° SSE
Cosmos 1862 Rocket 3.6 20:44:47 10° S 20:49:11 63° E 20:53:37 10° NNE
Cosmos 2263 Rocket 2.2 20:53:50 10° NNW 20:59:26 87° WSW 21:05:01 10° SSE
Spot 1 4.5 20:54:46 10° SSE 20:59:55 83° ENE 21:04:58 10° NNW
Spot 2 Rocket 4.5 20:57:35 10° S 21:02:29 48° W 21:07:23 10° NNW
Cosmos 968 Rocket 3.7 20:59:58 10° N 21:05:05 55° ENE 21:09:04 17° SE
USA 186 2.9 21:04:06 10° SSW 21:06:44 37° W 21:09:33 10° NNW
SAR-Lupe-4 3.6 21:03:13 10° SSE 21:06:48 83° WSW 21:10:25 10° NNW
Cosmos 1939 Rocket 2.8 21:03:23 12° SSE 21:06:59 66° ENE 21:10:57 10° N
Cosmos 1703 Rocket 4.1 21:06:20 13° SSE 21:09:56 38° E 21:14:02 10° NNE
Cosmos 2322 Rocket 3.4 21:05:44 10° SW 21:11:05 45° WNW 21:16:29 10° NNE
Atlas Centaur 2 3.4 21:09:01 10° WSW 21:14:56 35° S 21:19:23 20° ESE
USA 234 3.5 21:12:08 17° ESE 21:17:13 64° NE 21:23:41 10° NW
Cosmos 1825 3.9 21:14:08 10° NNW 21:17:34 32° W 21:20:58 10° SSW
Cosmos 2360 Rocket 2.1 21:12:58 10° SSW 21:18:37 84° ESE 21:24:19 10° NNE
Abrixas rocket 4.4 21:16:54 10° NW 21:19:32 21° N 21:22:09 10° NE
SJ-11-01 4.3 21:15:14 11° SSE 21:19:40 85° W 21:24:22 10° NNW
COSMOS 2428 3.1 21:15:38 10° S 21:20:50 39° ESE 21:26:06 10° NE
Cosmos 1655 Rocket 4.5 21:14:52 10° NNW 21:21:10 64° W 21:27:25 10° S
Cosmos 2266 Rocket 4.1 21:16:14 10° N 21:22:27 58° E 21:27:05 19° SSE
Envisat 3.2 21:17:34 10° S 21:22:37 71° WSW 21:27:42 10° NNW
Meteor 1-29 3.3 21:19:27 10° N 21:22:54 66° WNW 21:26:19 10° SSW
CZ-4B DEB 3.3 21:22:32 16° S 21:24:45 52° W 21:27:44 10° NNW
Lacrosse 4 Rocket 3.8 21:23:04 10° WNW 21:26:14 20° WSW 21:29:27 10° SSW
Helios 1B rocket 3.2 21:22:36 10° N 21:26:37 53° WNW 21:30:36 10° SSW
Cosmos 1867 3.6 21:21:58 10° NNW 21:27:28 86° WSW 21:30:53 23° SSE
H-2A R/B 3.4 21:28:32 18° E 21:29:57 20° ENE 21:33:32 10° NNE
Milstar 3 4.1 21:24:29 10° WSW 21:30:40 24° SSW 21:33:52 17° SSE
ATLAS 5 CENTAUR R/B 2.6 21:25:05 10° NW 21:31:07 72° WSW 21:35:40 21° SSE
Cosmos 2221 Rocket 3.7 21:32:02 26° SSE 21:34:19 53° E 21:38:39 10° NNE
Cosmos 2322 3.8 21:30:37 10° SSW 21:36:20 82° WNW 21:42:05 10° NNE
Meteor 1-14 Rocket 4.2 21:31:21 10° N 21:37:03 74° E 21:40:43 24° SSE
Meteor 1-25 Rocket 4.4 21:32:38 10° N 21:38:06 54° ENE 21:40:41 30° SE
ARGOS 3.7 21:37:29 29° ESE 21:39:39 42° ENE 21:44:41 10° N
Cosmos 1606 4.1 21:42:02 22° ENE 21:42:02 22° ENE 21:44:16 10° NE
SL-16 R/B 4.4 21:37:16 10° WSW 21:42:03 27° NW 21:46:51 10° N
ERS-1 Rocket 2.9 21:42:01 26° SSE 21:44:55 89° ENE 21:49:58 10° NNW
SeaSat 1 3.4 21:44:57 27° E 21:46:36 33° NE 21:51:01 10° N
Meteor 1-20 Rocket 4.3 21:42:18 10° N 21:47:49 59° ENE 21:50:10 34° SE
H-2A R/B 3.8 21:53:54 19° ENE 21:53:57 19° ENE 21:56:58 10° NNE
Cosmos 2237 Rocket 3.4 21:58:36 23° E 21:58:36 23° E 22:01:56 10° NE
Cosmos 2333 4.1 21:52:51 10° SSW 21:58:32 72° ESE 22:04:18 10° NNE
NOSS 3-1 (C) 3.4 21:54:38 16° S 21:59:07 51° ESE 22:05:14 10° NE
YAOGAN 6 3.6 21:58:12 29° SSW 21:59:35 43° W 22:03:03 10° NNW
Cosmos 2333 Rocket 2.7 22:00:04 38° ESE 22:00:17 38° ESE 22:05:34 10° NE
Cosmos 1844 Rocket 2.7 21:55:27 10° NNW 22:01:00 66° ENE 22:02:44 43° SE
SPOT 5 2.8 21:59:59 47° SE 22:01:11 66° ENE 22:05:44 10° N
SL-08 RB Rocket 3.9 22:01:17 47° ESE 22:01:57 51° ENE 22:06:22 10° N
Cosmos 2278 Rocket 3.3 21:57:16 10° N 22:02:12 30° NE 22:03:38 26° E
USA 229 DEB 4.0 21:58:37 10° SW 22:05:23 66° NW 22:12:20 10° NNE
USA 229 4.0 21:58:43 10° SW 22:05:30 67° NW 22:12:27 10° NNE
MetOp-A 4.1 22:04:25 36° S 22:06:40 83° WSW 22:12:04 10° NNW
CZ-4C R/B 3.6 22:01:48 10° NNW 22:08:25 41° NE 22:11:50 28° E
Nadezhda 2 Rocket 4.5 22:03:43 10° N 22:10:11 83° E 22:12:56 37° SSE
Cosmos 1782 Rocket 4.2 22:10:43 10° NNW 22:14:58 52° W 22:16:24 36° SSW
ASTEX 1 4.2 22:15:28 35° ENE 22:15:28 35° ENE 22:19:55 10° NNE
NOSS 3-1 (A) 3.4 22:15:18 48° SE 22:15:48 50° ESE 22:21:53 10° NE
SPOT 1/Viking Rocket 3.5 22:16:34 55° SE 22:17:32 68° ENE 22:22:44 10° N
Cosmos 1777 Rocket 4.2 22:15:06 10° NNW 22:20:20 64° WSW 22:21:49 44° SSW
Cosmos 2219 Rocket 2.0 22:20:00 46° S 22:21:41 72° ESE 22:27:18 10° NNE
USA 245 4.1 22:21:27 48° S 22:23:03 79° WSW 22:27:54 10° NNW
Okean 1-7 3.9 22:21:00 25° SW 22:23:11 47° W 22:27:28 10° N
S3M 4.0 22:28:26 52° ESE 22:29:05 54° E 22:35:08 10° NNE
Landsat 7 4.0 22:29:26 56° ENE 22:29:26 56° ENE 22:34:02 10° N
Okean 2 Rocket 3.8 22:25:40 10° NNW 22:30:03 51° W 22:30:55 44° SW
Cosmos 1782 3.2 22:30:21 60° W 22:30:28 60° W 22:34:27 10° N
Cosmos 2084 4.1 22:34:19 10° NNW 22:37:17 45° N 22:37:17 45° N
Cosmos 1633 3.8 22:36:52 10° N 22:39:16 39° N 22:39:16 39° N
Nimbus 7 Rocket 4.5 22:34:49 10° NNE 22:40:46 76° WNW 22:43:21 36° SSW
Terra 2.2 22:45:02 52° NE 22:45:02 52° NE 22:49:09 10° N
Cosmos 1346 Rocket 4.1 22:46:34 35° NNE 22:46:34 35° NNE 22:48:59 10° N
Meteor 1-27 Rocket 3.5 22:46:37 77° SE 22:46:52 79° E 22:52:28 10° NNE
USA 234 4.0 22:59:28 35° SW 23:00:25 37° SW 23:06:24 10° WNW
CARTOSAT-1 4.4 23:02:55 48° N 23:02:55 48° N 23:06:05 10° NNW
Cosmos 1745 Rocket 3.8 22:55:59 10° N 23:02:21 85° E 23:02:51 77° SSE
Atlas Centaur 2 3.9 22:57:26 10° WSW 23:02:01 30° SW 23:02:01 30° SW
COSMOS 2428 4.4 23:00:09 10° WSW 23:05:10 31° WNW 23:10:13 10° N
H-2A R/B 2.6 23:09:10 46° W 23:09:10 46° W 23:13:49 10° NNW
Meteor 1-11 Rocket 3.9 23:08:15 10° NNW 23:13:38 65° W 23:13:38 65° W
Cosmos 1980 3.8 23:13:33 67° W 23:13:53 69° WNW 23:19:32 10° NNE
Cosmos 2298 Rocket 4.4 23:10:56 10° NNW 23:15:27 60° NNE 23:15:27 60° NNE
NOSS 0 Rocket 4.2 23:16:17 45° WSW 23:18:01 62° WNW 23:24:08 10° NNE
Timation 1 Rocket 4.3 23:12:18 10° NNW 23:18:00 80° N 23:18:00 80° N
Okean 1 Rocket 4.2 23:14:58 10° N 23:17:55 41° N 23:17:55 41° N
SL-16 R/B 3.3 23:22:16 33° NE 23:22:16 33° NE 23:25:34 10° NNE
SeaSat 1 3.8 23:24:45 32° W 23:24:45 32° W 23:28:31 10° NW
H-2A R/B 3.7 23:31:01 31° WNW 23:31:01 31° WNW 23:33:45 10° NNW
Cosmos 1937 Rocket 4.1 23:27:45 10° NNW 23:31:47 54° NNW 23:31:47 54° NNW
Cosmos 2237 Rocket 3.0 23:40:20 43° W 23:41:05 46° WNW 23:46:34 10° NNE
Cosmos 2333 Rocket 3.7 23:41:57 23° W 23:44:35 33° WNW 23:49:45 10° N
Cosmos 2278 Rocket 3.2 23:41:06 10° NW 23:45:29 38° W 23:45:29 38° W
CZ-2C R/B 4.4 23:41:56 10° NE 23:44:26 23° NE 23:44:26 23° NE
Cosmos 2315 Rocket 4.1 23:51:45 68° N 23:51:45 68° N 23:57:08 10° N
